Cadillac, MI

4:08 AM EST on January 19, 2017 (GMT -0500)
Wexford County

Weather History for KCAD - October, 2013

Change the Weather History Date:

Sunday, October 6, 2013

  Actual Average Record
Temperature  
Mean Temperature 56 °F -  
Max Temperature 66 °F 59 °F 84 °F (1963)
Min Temperature 44 °F 39 °F 10 °F (1952)
Degree Days  
Heating Degree Days 10    
Growing Degree Days 6 (Base 50)    
Moisture  
Dew Point 57 °F    
Average Humidity 90    
Maximum Humidity 93    
Minimum Humidity 83    
Precipitation  
Precipitation 0.00 in - - ()
Sea Level Pressure  
Sea Level Pressure 29.71 in    
Wind  
Wind Speed 5 mph (SSW)    
Max Wind Speed 10 mph    
Max Gust Speed 17 mph    
Visibility 8 miles    
Events Rain    
Averages and records for this station are not official NWS values.
T = Trace of Precipitation, MM = Missing Value Source: NWS Daily Summary

Daily Weather History Graph

Daily Weather History Graph

Search for Another Location

Airport or City:

Trip Planner

Search our weather history database for the weather conditions in past years. The results will help you decide how hot, cold, wet, or windy it might be!

Date:

Astronomy

Oct. 06, 2013 Rise Set
Actual Time 7:45 AM EDT 7:12 PM EDT
Civil Twilight 7:16 AM EDT 7:41 PM EDT
Nautical Twilight 6:43 AM EDT 8:15 PM EDT
Astronomical Twilight 6:09 AM EDT 8:49 PM EDT
Moon 9:34 AM EDT (10/6) 8:05 PM EDT (10/6)
Length of Visible Light 12h 25m
Length of Day
11h 27m
Waxing Crescent, 3% of the Moon is Illuminated
Oct 6
Waxing Crescent
Oct 11
First Quarter
Oct 18
Full
Oct 26
Last Quarter
Nov 3
New

Hourly Weather History & Observations

Time (EDT) Temp. Dew Point Humidity Pressure Visibility Wind Dir Wind Speed Gust Speed Precip Events Conditions
12:15 AM 64.0 °F 61.7 °F 92% 29.82 in 5.0 mi East 4.6 mph - N/A Rain Light Rain
12:35 AM 64.0 °F 61.7 °F 92% 29.81 in 5.0 mi East 3.5 mph - N/A Rain Heavy Rain
12:54 AM 64.0 °F 61.7 °F 92% 29.80 in 10.0 mi East 6.9 mph - N/A Rain Rain
1:15 AM 64.0 °F 61.7 °F 92% 29.80 in 10.0 mi East 4.6 mph - N/A   Light Drizzle
1:35 AM 64.0 °F 61.7 °F 92% 29.80 in 10.0 mi East 5.8 mph - N/A   Overcast
1:54 AM 64.0 °F 61.7 °F 92% 29.79 in 7.0 mi East 5.8 mph - N/A   Overcast
2:15 AM 64.0 °F 61.7 °F 92% 29.78 in 4.0 mi East 5.8 mph - N/A   Overcast
2:35 AM 64.0 °F 61.7 °F 92% 29.78 in 4.0 mi ESE 4.6 mph - N/A Rain Rain
2:54 AM 64.0 °F 61.7 °F 92% 29.77 in 4.0 mi East 4.6 mph - N/A   Overcast
3:15 AM 64.0 °F 61.7 °F 92% 29.76 in 5.0 mi East 4.6 mph - N/A   Overcast
3:35 AM 64.2 °F 61.9 °F 92% 29.76 in 2.5 mi ESE 3.5 mph - N/A   Overcast
3:55 AM 64.0 °F 61.7 °F 92% 29.75 in 1.0 mi SSE 3.5 mph - N/A   Overcast
4:15 AM 64.4 °F 62.1 °F 92% 29.75 in 2.0 mi South 3.5 mph - N/A   Overcast
4:34 AM 64.8 °F 62.6 °F 93% 29.75 in 10.0 mi South 4.6 mph - N/A   Overcast
4:55 AM 64.8 °F 62.6 °F 93% 29.73 in 7.0 mi South 3.5 mph - N/A   Overcast
5:15 AM 64.4 °F 62.1 °F 92% 29.74 in 7.0 mi South 4.6 mph - N/A   Overcast
5:34 AM 64.6 °F 62.1 °F 92% 29.74 in 7.0 mi South 4.6 mph - N/A   Overcast
5:55 AM 64.4 °F 61.7 °F 91% 29.73 in 7.0 mi South 4.6 mph - N/A   Overcast
6:15 AM 64.4 °F 61.9 °F 92% 29.73 in 7.0 mi SSE 3.5 mph - N/A   Overcast
6:34 AM 64.4 °F 61.9 °F 92% 29.73 in 5.0 mi SSE 4.6 mph - N/A   Overcast
6:55 AM 64.4 °F 61.9 °F 92% 29.73 in 4.0 mi SE 5.8 mph - N/A   Overcast
7:15 AM 64.6 °F 62.1 °F 92% 29.72 in 3.0 mi SSE 4.6 mph - N/A   Overcast
7:34 AM 64.8 °F 62.2 °F 92% 29.72 in 5.0 mi SSE 5.8 mph - N/A   Overcast
7:55 AM 64.8 °F 62.2 °F 92% 29.72 in 5.0 mi SSE 3.5 mph - N/A   Overcast
8:15 AM 64.8 °F 62.1 °F 91% 29.71 in 5.0 mi SSE 5.8 mph - N/A   Overcast
8:34 AM 65.3 °F 62.4 °F 90% 29.71 in 7.0 mi SSE 9.2 mph - N/A   Overcast
8:55 AM 65.3 °F 62.4 °F 90% 29.71 in 7.0 mi SSE 4.6 mph - N/A   Overcast
9:15 AM 65.3 °F 62.2 °F 90% 29.70 in 10.0 mi SSE 6.9 mph - N/A   Overcast
9:34 AM 65.3 °F 62.2 °F 90% 29.69 in 5.0 mi SSE 8.1 mph - N/A Rain Rain
9:55 AM 65.3 °F 62.2 °F 90% 29.69 in 10.0 mi SSE 8.1 mph - N/A   Overcast
10:15 AM 66.4 °F 63.3 °F 90% 29.68 in 10.0 mi SSE 9.2 mph - N/A   Overcast
10:34 AM 66.2 °F 62.8 °F 89% 29.68 in 5.0 mi South 8.1 mph - N/A Rain Rain
10:55 AM 62.8 °F 59.9 °F 90% 29.69 in 10.0 mi WSW 9.2 mph - N/A   Overcast
11:15 AM 61.7 °F 58.6 °F 90% 29.70 in 10.0 mi WSW 9.2 mph - N/A   Overcast
11:35 AM 61.7 °F 58.6 °F 90% 29.69 in 10.0 mi WSW 8.1 mph - N/A   Overcast
11:55 AM 61.7 °F 58.5 °F 89% 29.69 in 10.0 mi SW 6.9 mph - N/A   Overcast
12:15 PM 62.1 °F 58.3 °F 87% 29.69 in 10.0 mi SW 8.1 mph - N/A   Overcast
12:35 PM 61.7 °F 58.1 °F 88% 29.70 in 5.0 mi WSW 6.9 mph - N/A   Overcast
12:55 PM 59.0 °F 56.3 °F 91% 29.70 in 2.0 mi SW 8.1 mph 17.3 mph N/A Rain Light Rain
1:15 PM 59.0 °F 56.3 °F 91% 29.70 in 7.0 mi WSW 9.2 mph - N/A Rain Light Rain
1:35 PM 59.0 °F 55.9 °F 90% 29.70 in 7.0 mi West 9.2 mph - N/A Rain Rain
1:55 PM 57.7 °F 54.9 °F 90% 29.69 in 4.0 mi WSW 10.4 mph - N/A Rain Rain
2:14 PM 58.3 °F 55.2 °F 90% 29.69 in 10.0 mi SW 6.9 mph - N/A Rain Light Rain
2:35 PM 57.7 °F 54.7 °F 90% 29.69 in 10.0 mi WSW 9.2 mph - N/A   Light Drizzle
2:55 PM 56.5 °F 53.6 °F 90% 29.68 in 10.0 mi WSW 4.6 mph - N/A   Drizzle
3:14 PM 56.5 °F 53.6 °F 90% 29.67 in 5.0 mi Calm Calm - N/A Rain Light Rain
3:35 PM 56.8 °F 53.8 °F 89% 29.67 in 10.0 mi SW 4.6 mph - N/A Rain Light Rain
3:55 PM 56.5 °F 53.6 °F 90% 29.66 in 7.0 mi WSW 5.8 mph - N/A Rain Rain
4:14 PM 56.5 °F 53.6 °F 90% 29.66 in 5.0 mi WSW 6.9 mph - N/A   Heavy Drizzle
4:35 PM 56.5 °F 53.1 °F 88% 29.66 in 10.0 mi SW 4.6 mph - N/A   Drizzle
4:55 PM 56.5 °F 52.9 °F 88% 29.65 in 10.0 mi WSW 5.8 mph - N/A   Overcast
5:14 PM 56.5 °F 52.7 °F 87% 29.66 in 10.0 mi WSW 8.1 mph - N/A   Overcast
5:35 PM 56.5 °F 52.5 °F 87% 29.67 in 10.0 mi WSW 5.8 mph - N/A   Overcast
5:55 PM 56.5 °F 52.3 °F 86% 29.67 in 10.0 mi WSW 5.8 mph - N/A   Overcast
6:14 PM 56.5 °F 52.7 °F 87% 29.66 in 10.0 mi WSW 3.5 mph - N/A   Scattered Clouds
6:35 PM 56.5 °F 52.2 °F 85% 29.67 in 10.0 mi WSW 5.8 mph - N/A   Clear
6:55 PM 56.5 °F 52.3 °F 86% 29.67 in 10.0 mi WSW 4.6 mph - N/A   Scattered Clouds
7:14 PM 56.5 °F 52.7 °F 87% 29.67 in 10.0 mi SW 3.5 mph - N/A   Mostly Cloudy
7:35 PM 54.0 °F 50.5 °F 88% 29.66 in 10.0 mi WSW 3.5 mph - N/A   Mostly Cloudy
7:55 PM 54.0 °F 50.5 °F 88% 29.66 in 10.0 mi Calm Calm - N/A   Overcast
8:14 PM 54.0 °F 50.9 °F 89% 29.68 in 10.0 mi WSW 5.8 mph - N/A   Overcast
8:35 PM 54.0 °F 50.9 °F 89% 29.68 in 10.0 mi WSW 5.8 mph - N/A   Overcast
8:55 PM 54.0 °F 50.4 °F 88% 29.68 in 10.0 mi WSW 6.9 mph - N/A   Overcast
9:14 PM 51.6 °F 47.5 °F 86% 29.67 in 10.0 mi WSW 5.8 mph - N/A   Scattered Clouds
9:35 PM 51.4 °F 47.5 °F 86% 29.67 in 10.0 mi SW 4.6 mph - N/A   Clear
9:55 PM 51.4 °F 47.3 °F 86% 29.67 in 10.0 mi SW 4.6 mph - N/A   Clear
10:14 PM 51.4 °F 46.6 °F 83% 29.67 in 10.0 mi SW 5.8 mph - N/A   Clear
10:35 PM 51.4 °F 46.4 °F 83% 29.67 in 10.0 mi WSW 5.8 mph - N/A   Clear
10:55 PM 49.1 °F 44.8 °F 85% 29.67 in 10.0 mi Calm Calm - N/A   Clear
11:14 PM 46.8 °F 43.2 °F 87% 29.67 in 10.0 mi Calm Calm - N/A   Clear
11:35 PM 45.5 °F 42.3 °F 88% 29.67 in 10.0 mi Calm Calm - N/A   Clear
11:54 PM 44.8 °F 41.9 °F 90% 29.66 in 10.0 mi Calm Calm - N/A   Clear